Grosse Ile, MI

12:42 PM EDT on March 23, 2017 (GMT -0400)
Grosse Ile Municipal

Weather History for KONZ - April, 2013

Change the Weather History Date:

Friday, April 26, 2013

  Actual Average (KDTW) Record (KDTW)
Temperature  
Mean Temperature 43 °F -  
Max Temperature 53 °F 63 °F 86 °F (1915)
Min Temperature 33 °F 40 °F 27 °F (1926)
Degree Days  
Heating Degree Days 22    
Moisture  
Dew Point 33 °F    
Average Humidity 63    
Maximum Humidity 81    
Minimum Humidity 44    
Precipitation  
Precipitation 0.00 in - - ()
Sea Level Pressure  
Sea Level Pressure 30.40 in    
Wind  
Wind Speed 3 mph (SSE)    
Max Wind Speed 13 mph    
Max Gust Speed -    
Visibility 10 miles    
Events      
Averages and records for this station are not official NWS values.
T = Trace of Precipitation, MM = Missing Value Source: NWS Daily Summary

Daily Weather History Graph

Daily Weather History Graph

Search for Another Location

Airport or City:

Trip Planner

Search our weather history database for the weather conditions in past years. The results will help you decide how hot, cold, wet, or windy it might be!

Date:

Astronomy

Apr. 26, 2013 Rise Set
Actual Time 6:35 AM EDT 8:26 PM EDT
Civil Twilight 6:05 AM EDT 8:56 PM EDT
Nautical Twilight 5:28 AM EDT 9:33 PM EDT
Astronomical Twilight 4:49 AM EDT 10:12 PM EDT
Moon 9:49 PM EDT (4/26) 7:00 AM EDT (4/26)
Length of Visible Light 14h 51m
Length of Day
13h 51m
Full, 99% of the Moon is Illuminated
Apr 26
Full
May 2
Last Quarter
May 9
New
May 18
First Quarter
May 25
Full

Hourly Weather History & Observations

Time (EDT) Temp. Windchill Dew Point Humidity Pressure Visibility Wind Dir Wind Speed Gust Speed Precip Events Conditions
12:14 AM 42.8 °F - 28.4 °F 57% 30.34 in 10.0 mi Calm Calm - N/A   Clear
12:34 AM 41.0 °F - 28.4 °F 61% 30.34 in 10.0 mi Calm Calm - N/A   Clear
12:54 AM 41.0 °F - 28.4 °F 61% 30.35 in 10.0 mi Calm Calm - N/A   Clear
1:14 AM 41.0 °F - 26.6 °F 57% 30.36 in 10.0 mi Calm Calm - N/A   Clear
1:34 AM 41.0 °F - 26.6 °F 57% 30.36 in 10.0 mi Calm Calm - N/A   Clear
1:54 AM 41.0 °F - 26.6 °F 57% 30.37 in 10.0 mi Calm Calm - N/A   Clear
2:14 AM 39.2 °F - 26.6 °F 61% 30.37 in 10.0 mi Calm Calm - N/A   Clear
2:34 AM 39.2 °F - 26.6 °F 61% 30.37 in 10.0 mi Calm Calm - N/A   Clear
3:14 AM 39.2 °F - 26.6 °F 61% 30.36 in 10.0 mi Calm Calm - N/A   Clear
3:34 AM 37.4 °F - 28.4 °F 70% 30.36 in 10.0 mi Calm Calm - N/A   Clear
3:54 AM 35.6 °F - 28.4 °F 75% 30.37 in 10.0 mi Calm Calm - N/A   Clear
4:14 AM 35.6 °F - 28.4 °F 75% 30.37 in 10.0 mi Calm Calm - N/A   Clear
4:34 AM 35.6 °F - 28.4 °F 75% 30.38 in 10.0 mi Calm Calm - N/A   Clear
4:54 AM 33.8 °F - 28.4 °F 81% 30.38 in 10.0 mi Calm Calm - N/A   Clear
5:14 AM 33.8 °F - 28.4 °F 81% 30.39 in 10.0 mi Calm Calm - N/A   Clear
5:34 AM 33.8 °F - 28.4 °F 81% 30.39 in 10.0 mi Calm Calm - N/A   Clear
5:55 AM 33.8 °F - 28.4 °F 81% 30.39 in 10.0 mi Calm Calm - N/A   Clear
6:14 AM 33.8 °F - 28.4 °F 81% 30.40 in 10.0 mi Calm Calm - N/A   Clear
6:34 AM 33.8 °F - 28.4 °F 81% 30.41 in 10.0 mi Calm Calm - N/A   Clear
6:55 AM 33.8 °F - 28.4 °F 81% 30.41 in 10.0 mi Calm Calm - N/A   Clear
7:14 AM 33.8 °F - 28.4 °F 81% 30.41 in 10.0 mi Calm Calm - N/A   Clear
7:34 AM 37.4 °F - 30.2 °F 75% 30.42 in 10.0 mi Calm Calm - N/A   Clear
7:55 AM 39.2 °F - 30.2 °F 70% 30.43 in 10.0 mi Calm Calm - N/A   Clear
8:14 AM 41.0 °F - 30.2 °F 65% 30.43 in 10.0 mi Calm Calm - N/A   Clear
8:34 AM 42.8 °F - 30.2 °F 61% 30.44 in 10.0 mi Calm Calm - N/A   Clear
8:54 AM 44.6 °F 43.1 °F 30.2 °F 57% 30.45 in 10.0 mi South 3.5 mph - N/A   Clear
9:14 AM 44.6 °F 43.1 °F 33.8 °F 66% 30.45 in 10.0 mi South 3.5 mph - N/A   Clear
9:34 AM 46.4 °F 43.5 °F 35.6 °F 66% 30.45 in 10.0 mi SSE 5.8 mph - N/A   Clear
9:54 AM 46.4 °F 43.5 °F 37.4 °F 71% 30.45 in 10.0 mi South 5.8 mph - N/A   Clear
10:14 AM 48.2 °F - 37.4 °F 66% 30.46 in 10.0 mi South 8.1 mph - N/A   Clear
10:34 AM 48.2 °F - 39.2 °F 71% 30.46 in 10.0 mi South 9.2 mph - N/A   Clear
10:54 AM 48.2 °F - 37.4 °F 66% 30.46 in 10.0 mi South 8.1 mph - N/A   Clear
11:14 AM 48.2 °F - 37.4 °F 66% 30.47 in 10.0 mi South 8.1 mph - N/A   Clear
11:35 AM 48.2 °F - 37.4 °F 66% 30.46 in 10.0 mi South 9.2 mph - N/A   Clear
11:54 AM 48.2 °F - 37.4 °F 66% 30.46 in 10.0 mi South 9.2 mph - N/A   Clear
12:14 PM 50.0 °F - 37.4 °F 62% 30.46 in 10.0 mi South 8.1 mph - N/A   Clear
12:35 PM 50.0 °F - 37.4 °F 62% 30.46 in 10.0 mi SSE 8.1 mph - N/A   Clear
12:54 PM 50.0 °F - 37.4 °F 62% 30.45 in 10.0 mi SSE 8.1 mph - N/A   Clear
1:14 PM 50.0 °F - 35.6 °F 58% 30.45 in 10.0 mi SSE 8.1 mph - N/A   Clear
1:34 PM 50.0 °F - 35.6 °F 58% 30.45 in 10.0 mi SSE 9.2 mph - N/A   Clear
1:54 PM 51.8 °F - 37.4 °F 58% 30.44 in 10.0 mi SSE 9.2 mph - N/A   Clear
2:14 PM 50.0 °F - 35.6 °F 58% 30.43 in 10.0 mi SSE 10.4 mph - N/A   Clear
2:34 PM 51.8 °F - 35.6 °F 54% 30.42 in 10.0 mi SSE 12.7 mph - N/A   Clear
2:54 PM 51.8 °F - 33.8 °F 50% 30.42 in 10.0 mi SSE 11.5 mph - N/A   Clear
3:14 PM 51.8 °F - 33.8 °F 50% 30.42 in 10.0 mi SE 10.4 mph - N/A   Clear
3:34 PM 51.8 °F - 32.0 °F 47% 30.41 in 10.0 mi SSE 10.4 mph - N/A   Clear
3:54 PM 51.8 °F - 33.8 °F 50% 30.40 in 10.0 mi SE 10.4 mph - N/A   Clear
4:14 PM 51.8 °F - 33.8 °F 50% 30.39 in 10.0 mi SSE 9.2 mph - N/A   Clear
4:34 PM 53.6 °F - 32.0 °F 44% 30.38 in 10.0 mi SSE 9.2 mph - N/A   Clear
4:55 PM 53.6 °F - 33.8 °F 47% 30.37 in 10.0 mi SE 9.2 mph - N/A   Clear
5:14 PM 53.6 °F - 33.8 °F 47% 30.36 in 10.0 mi SE 6.9 mph - N/A   Clear
5:34 PM 53.6 °F - 33.8 °F 47% 30.35 in 10.0 mi SSE 9.2 mph - N/A   Clear
5:54 PM 53.6 °F - 33.8 °F 47% 30.36 in 10.0 mi SSE 8.1 mph - N/A   Clear
6:14 PM 53.6 °F - 33.8 °F 47% 30.36 in 10.0 mi SE 10.4 mph - N/A   Clear
6:34 PM 53.6 °F - 33.8 °F 47% 30.36 in 10.0 mi SE 8.1 mph - N/A   Clear
6:54 PM 53.6 °F - 35.6 °F 51% 30.36 in 10.0 mi SE 8.1 mph - N/A   Clear
7:14 PM 51.8 °F - 33.8 °F 50% 30.36 in 10.0 mi SE 5.8 mph - N/A   Clear
7:34 PM 51.8 °F - 33.8 °F 50% 30.35 in 10.0 mi SE 5.8 mph - N/A   Clear
7:54 PM 51.8 °F - 33.8 °F 50% 30.35 in 10.0 mi SE 6.9 mph - N/A   Clear
8:14 PM 50.0 °F - 33.8 °F 54% 30.34 in 10.0 mi SE 6.9 mph - N/A   Clear
8:35 PM 48.2 °F - 33.8 °F 58% 30.35 in 10.0 mi SE 5.8 mph - N/A   Clear
8:54 PM 48.2 °F - 33.8 °F 58% 30.36 in 10.0 mi SE 8.1 mph - N/A   Clear
9:14 PM 48.2 °F - 35.6 °F 62% 30.37 in 10.0 mi SE 9.2 mph - N/A   Clear
9:35 PM 46.4 °F 43.5 °F 37.4 °F 71% 30.37 in 10.0 mi SE 5.8 mph - N/A   Clear
9:54 PM 46.4 °F 42.9 °F 37.4 °F 71% 30.37 in 10.0 mi SE 6.9 mph - N/A   Clear
10:14 PM 46.4 °F 42.4 °F 37.4 °F 71% 30.37 in 10.0 mi SE 8.1 mph - N/A   Clear
10:35 PM 46.4 °F 44.3 °F 35.6 °F 66% 30.37 in 10.0 mi SE 4.6 mph - N/A   Clear
10:54 PM 44.6 °F 42.2 °F 35.6 °F 71% 30.37 in 10.0 mi SE 4.6 mph - N/A   Clear
11:14 PM 44.6 °F 41.4 °F 35.6 °F 71% 30.37 in 10.0 mi SE 5.8 mph - N/A   Clear
11:34 PM 46.4 °F 44.3 °F 35.6 °F 66% 30.37 in 10.0 mi SE 4.6 mph - N/A   Clear
11:54 PM 46.4 °F 45.2 °F 35.6 °F 66% 30.37 in 10.0 mi SSE 3.5 mph - N/A   Clear